Year,Month,Day,Hour,Minute,Value (Times are PST for temperature in C)
2017,05,28,00,00,15.00
2017,05,28,00,01,15.00
2017,05,28,00,02,15.00
2017,05,28,00,03,15.00
2017,05,28,00,04,15.00
2017,05,28,00,05,15.00
2017,05,28,00,06,15.00
2017,05,28,00,07,15.00
2017,05,28,00,08,15.00
2017,05,28,00,09,15.00
2017,05,28,00,10,15.00
2017,05,28,00,11,15.00
2017,05,28,00,12,15.00
2017,05,28,00,13,14.90
2017,05,28,00,14,14.90
2017,05,28,00,15,14.80
2017,05,28,00,16,14.80
2017,05,28,00,17,14.80
2017,05,28,00,18,14.80
2017,05,28,00,19,14.80
2017,05,28,00,20,14.70
2017,05,28,00,21,14.70
2017,05,28,00,22,14.70
2017,05,28,00,23,14.60
2017,05,28,00,24,14.60
2017,05,28,00,25,14.50
2017,05,28,00,26,14.50
2017,05,28,00,27,14.40
2017,05,28,00,28,14.40
2017,05,28,00,29,14.40
2017,05,28,00,30,14.30
2017,05,28,00,31,14.30
2017,05,28,00,32,14.30
2017,05,28,00,33,14.30
2017,05,28,00,34,14.30
2017,05,28,00,35,14.30
2017,05,28,00,36,14.30
2017,05,28,00,37,14.30
2017,05,28,00,38,14.30
2017,05,28,00,39,14.30
2017,05,28,00,40,14.30
2017,05,28,00,41,14.30
2017,05,28,00,42,14.30
2017,05,28,00,43,14.30
2017,05,28,00,44,14.30
2017,05,28,00,45,14.30
2017,05,28,00,46,14.30
2017,05,28,00,47,14.30
2017,05,28,00,48,14.30
2017,05,28,00,49,14.30
2017,05,28,00,50,14.30
2017,05,28,00,51,14.30
2017,05,28,00,52,14.30
2017,05,28,00,53,14.30
2017,05,28,00,54,14.20
2017,05,28,00,55,14.20
2017,05,28,00,56,14.20
2017,05,28,00,57,14.20
2017,05,28,00,58,14.20
2017,05,28,00,59,14.20
2017,05,28,01,00,14.10
2017,05,28,01,01,14.10
2017,05,28,01,02,14.10
2017,05,28,01,03,14.10
2017,05,28,01,04,14.10
2017,05,28,01,05,14.00
2017,05,28,01,06,14.00
2017,05,28,01,07,14.00
2017,05,28,01,08,14.00
2017,05,28,01,09,14.00
2017,05,28,01,10,14.00
2017,05,28,01,11,14.00
2017,05,28,01,12,14.00
2017,05,28,01,13,14.00
2017,05,28,01,14,14.00
2017,05,28,01,15,14.00
2017,05,28,01,16,14.00
2017,05,28,01,17,13.90
2017,05,28,01,18,13.90
2017,05,28,01,19,13.90
2017,05,28,01,20,13.90
2017,05,28,01,21,13.90
2017,05,28,01,22,13.90
2017,05,28,01,23,13.90
2017,05,28,01,24,13.90
2017,05,28,01,25,13.90
2017,05,28,01,26,13.90
2017,05,28,01,27,13.90
2017,05,28,01,28,13.90
2017,05,28,01,29,13.90
2017,05,28,01,30,13.90
2017,05,28,01,31,13.90
2017,05,28,01,32,13.90
2017,05,28,01,33,13.90
2017,05,28,01,34,13.90
2017,05,28,01,35,13.90
2017,05,28,01,36,13.90
2017,05,28,01,37,13.90
2017,05,28,01,38,13.90
2017,05,28,01,39,13.90
2017,05,28,01,40,13.90
2017,05,28,01,41,13.90
2017,05,28,01,42,13.90
2017,05,28,01,43,13.90
2017,05,28,01,44,13.90
2017,05,28,01,45,13.90
2017,05,28,01,46,13.90
2017,05,28,01,47,13.90
2017,05,28,01,48,13.80
2017,05,28,01,49,13.80
2017,05,28,01,50,13.80
2017,05,28,01,51,13.80
2017,05,28,01,52,13.80
2017,05,28,01,53,13.80
2017,05,28,01,54,13.70
2017,05,28,01,55,13.70
2017,05,28,01,56,13.70
2017,05,28,01,57,13.70
2017,05,28,01,58,13.70
2017,05,28,01,59,13.70
2017,05,28,02,00,13.70
2017,05,28,02,01,13.60
2017,05,28,02,02,13.60
2017,05,28,02,03,13.60
2017,05,28,02,04,13.60
2017,05,28,02,05,13.60
2017,05,28,02,06,13.60
2017,05,28,02,07,13.60
2017,05,28,02,08,13.60
2017,05,28,02,09,13.60
2017,05,28,02,10,13.60
2017,05,28,02,11,13.50
2017,05,28,02,12,13.50
2017,05,28,02,13,13.40
2017,05,28,02,14,13.40
2017,05,28,02,15,13.40
2017,05,28,02,16,13.40
2017,05,28,02,17,13.30
2017,05,28,02,18,13.30
2017,05,28,02,19,13.30
2017,05,28,02,20,13.30
2017,05,28,02,21,13.30
2017,05,28,02,22,13.30
2017,05,28,02,23,13.30
2017,05,28,02,24,13.30
2017,05,28,02,25,13.30
2017,05,28,02,26,13.30
2017,05,28,02,27,13.30
2017,05,28,02,28,13.30
2017,05,28,02,29,13.30
2017,05,28,02,30,13.30
2017,05,28,02,31,13.30
2017,05,28,02,32,13.30
2017,05,28,02,33,13.30
2017,05,28,02,34,13.30
2017,05,28,02,35,13.30
2017,05,28,02,36,13.30
2017,05,28,02,37,13.30
2017,05,28,02,38,13.30
2017,05,28,02,39,13.30
2017,05,28,02,40,13.30
2017,05,28,02,41,13.30
2017,05,28,02,42,13.30
2017,05,28,02,43,13.30
2017,05,28,02,44,13.30
2017,05,28,02,45,13.30
2017,05,28,02,46,13.30
2017,05,28,02,47,13.30
2017,05,28,02,48,13.30
2017,05,28,02,49,13.30
2017,05,28,02,50,13.30
2017,05,28,02,51,13.30
2017,05,28,02,52,13.30
2017,05,28,02,53,13.30
2017,05,28,02,54,13.40
2017,05,28,02,55,13.40
2017,05,28,02,56,13.40
2017,05,28,02,57,13.40
2017,05,28,02,58,13.50
2017,05,28,02,59,13.50
2017,05,28,03,00,13.50
2017,05,28,03,01,13.60
2017,05,28,03,02,13.50
2017,05,28,03,03,13.50
2017,05,28,03,04,13.50
2017,05,28,03,05,13.40
2017,05,28,03,06,13.40
2017,05,28,03,07,13.40
2017,05,28,03,08,13.30
2017,05,28,03,09,13.30
2017,05,28,03,10,13.30
2017,05,28,03,11,13.30
2017,05,28,03,12,13.30
2017,05,28,03,13,13.20
2017,05,28,03,14,13.20
2017,05,28,03,15,13.10
2017,05,28,03,16,13.10
2017,05,28,03,17,13.10
2017,05,28,03,18,13.10
2017,05,28,03,19,13.10
2017,05,28,03,20,13.10
2017,05,28,03,21,13.10
2017,05,28,03,22,13.10
2017,05,28,03,23,13.00
2017,05,28,03,24,13.00
2017,05,28,03,25,13.00
2017,05,28,03,26,12.90
2017,05,28,03,27,12.90
2017,05,28,03,28,12.90
2017,05,28,03,29,12.90
2017,05,28,03,30,12.90
2017,05,28,03,31,12.90
2017,05,28,03,32,12.90
2017,05,28,03,33,12.80
2017,05,28,03,34,12.80
2017,05,28,03,35,12.80
2017,05,28,03,36,12.80
2017,05,28,03,37,12.80
2017,05,28,03,38,12.80
2017,05,28,03,39,12.80
2017,05,28,03,40,12.80
2017,05,28,03,41,12.80
2017,05,28,03,42,12.80
2017,05,28,03,43,12.70
2017,05,28,03,44,12.70
2017,05,28,03,45,12.70
2017,05,28,03,46,12.70
2017,05,28,03,47,12.60
2017,05,28,03,48,12.60
2017,05,28,03,49,12.60
2017,05,28,03,50,12.50
2017,05,28,03,51,12.50
2017,05,28,03,52,12.50
2017,05,28,03,53,12.40
2017,05,28,03,54,12.40
2017,05,28,03,55,12.40
2017,05,28,03,56,12.30
2017,05,28,03,57,12.30
2017,05,28,03,58,12.30
2017,05,28,03,59,12.30
2017,05,28,04,00,12.30
2017,05,28,04,01,12.20
2017,05,28,04,02,12.20
2017,05,28,04,03,12.20
2017,05,28,04,04,12.20
2017,05,28,04,05,12.20
2017,05,28,04,06,12.20
2017,05,28,04,07,12.20
2017,05,28,04,08,12.20
2017,05,28,04,09,12.20
2017,05,28,04,10,12.10
2017,05,28,04,11,12.10
2017,05,28,04,12,12.10
2017,05,28,04,13,12.10
2017,05,28,04,14,12.10
2017,05,28,04,15,12.10
2017,05,28,04,16,12.10
2017,05,28,04,17,12.10
2017,05,28,04,18,12.10
2017,05,28,04,19,12.10
2017,05,28,04,20,12.10
2017,05,28,04,21,12.10
2017,05,28,04,22,12.10
2017,05,28,04,23,12.10
2017,05,28,04,24,12.10
2017,05,28,04,25,12.10
2017,05,28,04,26,12.10
2017,05,28,04,27,12.10
2017,05,28,04,28,12.10
2017,05,28,04,29,12.10
2017,05,28,04,30,12.10
2017,05,28,04,31,12.20
2017,05,28,04,32,12.20
2017,05,28,04,33,12.20
2017,05,28,04,34,12.20
2017,05,28,04,35,12.20
2017,05,28,04,36,12.10
2017,05,28,04,37,12.10
2017,05,28,04,38,12.10
2017,05,28,04,39,12.10
2017,05,28,04,40,12.10
2017,05,28,04,41,12.10
2017,05,28,04,42,12.10
2017,05,28,04,43,12.10
2017,05,28,04,44,12.10
2017,05,28,04,45,12.10
2017,05,28,04,46,12.10
2017,05,28,04,47,12.10
2017,05,28,04,48,12.10
2017,05,28,04,49,12.10
2017,05,28,04,50,12.10
2017,05,28,04,51,12.10
2017,05,28,04,52,12.10
2017,05,28,04,53,12.10
2017,05,28,04,54,12.10
2017,05,28,04,55,12.10
2017,05,28,04,56,12.10
2017,05,28,04,57,12.10
2017,05,28,04,58,12.10
2017,05,28,04,59,12.10
2017,05,28,05,00,12.10
2017,05,28,05,01,12.10
2017,05,28,05,02,12.10
2017,05,28,05,03,12.10
2017,05,28,05,04,12.10
2017,05,28,05,05,12.10
2017,05,28,05,06,12.10
2017,05,28,05,07,12.10
2017,05,28,05,08,12.10
2017,05,28,05,09,12.10
2017,05,28,05,10,12.10
2017,05,28,05,11,12.10
2017,05,28,05,12,12.10
2017,05,28,05,13,12.10
2017,05,28,05,14,12.10
2017,05,28,05,15,12.00
2017,05,28,05,16,12.00
2017,05,28,05,17,12.00
2017,05,28,05,18,12.00
2017,05,28,05,19,12.00
2017,05,28,05,20,12.00
2017,05,28,05,21,11.90
2017,05,28,05,22,11.90
2017,05,28,05,23,11.90
2017,05,28,05,24,11.80
2017,05,28,05,25,11.80
2017,05,28,05,26,11.80
2017,05,28,05,27,11.80
2017,05,28,05,28,11.80
2017,05,28,05,29,11.80
2017,05,28,05,30,11.80
2017,05,28,05,31,11.80
2017,05,28,05,32,11.70
2017,05,28,05,33,11.70
2017,05,28,05,34,11.70
2017,05,28,05,35,11.70
2017,05,28,05,36,11.70
2017,05,28,05,37,11.80
2017,05,28,05,38,11.70
2017,05,28,05,39,11.70
2017,05,28,05,40,11.70
2017,05,28,05,41,11.70
2017,05,28,05,42,11.70
2017,05,28,05,43,11.70
2017,05,28,05,44,11.70
2017,05,28,05,45,11.70
2017,05,28,05,46,11.70
2017,05,28,05,47,11.70
2017,05,28,05,48,11.70
2017,05,28,05,49,11.70
2017,05,28,05,50,11.70
2017,05,28,05,51,11.70
2017,05,28,05,52,11.70
2017,05,28,05,53,11.70
2017,05,28,05,54,11.70
2017,05,28,05,55,11.70
2017,05,28,05,56,11.70
2017,05,28,05,57,11.70
2017,05,28,05,58,11.60
2017,05,28,05,59,11.60
2017,05,28,06,00,11.60
2017,05,28,06,01,11.60
2017,05,28,06,02,11.60
2017,05,28,06,03,11.60
2017,05,28,06,04,11.60
2017,05,28,06,05,11.70
2017,05,28,06,06,11.70
2017,05,28,06,07,11.70
2017,05,28,06,08,11.60
2017,05,28,06,09,11.60
2017,05,28,06,10,11.60
2017,05,28,06,11,11.70
2017,05,28,06,12,11.70
2017,05,28,06,13,11.70
2017,05,28,06,14,11.70
2017,05,28,06,15,11.70
2017,05,28,06,16,11.80
2017,05,28,06,17,11.80
2017,05,28,06,18,11.80
2017,05,28,06,19,11.90
2017,05,28,06,20,11.90
2017,05,28,06,21,12.00
2017,05,28,06,22,12.00
2017,05,28,06,23,12.10
2017,05,28,06,24,12.10
2017,05,28,06,25,12.20
2017,05,28,06,26,12.20
2017,05,28,06,27,12.20
2017,05,28,06,28,12.20
2017,05,28,06,29,12.30
2017,05,28,06,30,12.30
2017,05,28,06,31,12.40
2017,05,28,06,32,12.40
2017,05,28,06,33,12.40
2017,05,28,06,34,12.40
2017,05,28,06,35,12.50
2017,05,28,06,36,12.50
2017,05,28,06,37,12.60
2017,05,28,06,38,12.60
2017,05,28,06,39,12.60
2017,05,28,06,40,12.60
2017,05,28,06,41,12.60
2017,05,28,06,42,12.60
2017,05,28,06,43,12.60
2017,05,28,06,44,12.70
2017,05,28,06,45,12.70
2017,05,28,06,46,12.70
2017,05,28,06,47,12.80
2017,05,28,06,48,12.80
2017,05,28,06,49,12.80
2017,05,28,06,50,12.80
2017,05,28,06,51,12.90
2017,05,28,06,52,12.90
2017,05,28,06,53,13.00
2017,05,28,06,54,13.00
2017,05,28,06,55,13.10
2017,05,28,06,56,13.10
2017,05,28,06,57,13.20
2017,05,28,06,58,13.20
2017,05,28,06,59,13.20
2017,05,28,07,00,13.30
2017,05,28,07,01,13.30
2017,05,28,07,02,13.30
2017,05,28,07,03,13.30
2017,05,28,07,04,13.40
2017,05,28,07,05,13.40
2017,05,28,07,06,13.50
2017,05,28,07,07,13.60
2017,05,28,07,08,13.70
2017,05,28,07,09,13.80
2017,05,28,07,10,13.90
2017,05,28,07,11,14.00
2017,05,28,07,12,14.10
2017,05,28,07,13,14.10
2017,05,28,07,14,14.20
2017,05,28,07,15,14.20
2017,05,28,07,16,14.20
2017,05,28,07,17,14.20
2017,05,28,07,18,14.30
2017,05,28,07,19,14.30
2017,05,28,07,20,14.30
2017,05,28,07,21,14.40
2017,05,28,07,22,14.40
2017,05,28,07,23,14.50
2017,05,28,07,24,14.50
2017,05,28,07,25,14.60
2017,05,28,07,26,14.80
2017,05,28,07,27,14.90
2017,05,28,07,28,15.00
2017,05,28,07,29,15.00
2017,05,28,07,30,15.20
2017,05,28,07,31,15.30
2017,05,28,07,32,15.40
2017,05,28,07,33,15.60
2017,05,28,07,34,15.70
2017,05,28,07,35,15.80
2017,05,28,07,36,15.80
2017,05,28,07,37,15.90
2017,05,28,07,38,16.00
2017,05,28,07,39,16.10
2017,05,28,07,40,16.20
2017,05,28,07,41,16.30
2017,05,28,07,42,16.30
2017,05,28,07,43,16.40
2017,05,28,07,44,16.40
2017,05,28,07,45,16.40
2017,05,28,07,46,16.40
2017,05,28,07,47,16.40
2017,05,28,07,48,16.50
2017,05,28,07,49,16.50
2017,05,28,07,50,16.50
2017,05,28,07,51,16.60
2017,05,28,07,52,16.60
2017,05,28,07,53,16.60
2017,05,28,07,54,16.70
2017,05,28,07,55,16.70
2017,05,28,07,56,16.70
2017,05,28,07,57,16.80
2017,05,28,07,58,16.80
2017,05,28,07,59,16.90
2017,05,28,08,00,17.00
2017,05,28,08,01,17.00
2017,05,28,08,02,17.10
2017,05,28,08,03,17.10
2017,05,28,08,04,17.20
2017,05,28,08,05,17.20
2017,05,28,08,06,17.30
2017,05,28,08,07,17.30
2017,05,28,08,08,17.40
2017,05,28,08,09,17.50
2017,05,28,08,10,17.60
2017,05,28,08,11,17.70
2017,05,28,08,12,17.80
2017,05,28,08,13,17.90
2017,05,28,08,14,18.00
2017,05,28,08,15,18.00
2017,05,28,08,16,18.10
2017,05,28,08,17,18.10
2017,05,28,08,18,18.10
2017,05,28,08,19,18.20
2017,05,28,08,20,18.30
2017,05,28,08,21,18.30
2017,05,28,08,22,18.40
2017,05,28,08,23,18.50
2017,05,28,08,24,18.60
2017,05,28,08,25,18.70
2017,05,28,08,26,18.80
2017,05,28,08,27,18.90
2017,05,28,08,28,18.90
2017,05,28,08,29,18.90
2017,05,28,08,30,18.90
2017,05,28,08,31,19.00
2017,05,28,08,32,19.10
2017,05,28,08,33,19.10
2017,05,28,08,34,19.10
2017,05,28,08,35,19.10
2017,05,28,08,36,19.20
2017,05,28,08,37,19.20
2017,05,28,08,38,19.20
2017,05,28,08,39,19.20
2017,05,28,08,40,19.30
2017,05,28,08,41,19.30
2017,05,28,08,42,19.40
2017,05,28,08,43,19.40
2017,05,28,08,44,19.40
2017,05,28,08,45,19.40
2017,05,28,08,46,19.40
2017,05,28,08,47,19.40
2017,05,28,08,48,19.40
2017,05,28,08,49,19.40
2017,05,28,08,50,19.40
2017,05,28,08,51,19.40
2017,05,28,08,52,19.40
2017,05,28,08,53,19.40
2017,05,28,08,54,19.40
2017,05,28,08,55,19.30
2017,05,28,08,56,19.20
2017,05,28,08,57,19.20
2017,05,28,08,58,19.20
2017,05,28,08,59,19.10
2017,05,28,09,00,19.10
2017,05,28,09,01,19.10
2017,05,28,09,02,19.10
2017,05,28,09,03,19.10
2017,05,28,09,04,19.10
2017,05,28,09,05,19.10
2017,05,28,09,06,19.10
2017,05,28,09,07,19.00
2017,05,28,09,08,19.00
2017,05,28,09,09,18.90
2017,05,28,09,10,18.90
2017,05,28,09,11,18.90
2017,05,28,09,12,18.90
2017,05,28,09,13,18.90
2017,05,28,09,14,18.80
2017,05,28,09,15,18.90
2017,05,28,09,16,18.90
2017,05,28,09,17,18.90
2017,05,28,09,18,18.90
2017,05,28,09,19,18.90
2017,05,28,09,20,18.90
2017,05,28,09,21,18.90
2017,05,28,09,22,19.00
2017,05,28,09,23,19.10
2017,05,28,09,24,19.20
2017,05,28,09,25,19.20
2017,05,28,09,26,19.20
2017,05,28,09,27,19.30
2017,05,28,09,28,19.30
2017,05,28,09,29,19.30
2017,05,28,09,30,19.30
2017,05,28,09,31,19.30
2017,05,28,09,32,19.30
2017,05,28,09,33,19.30
2017,05,28,09,34,19.30
2017,05,28,09,35,19.30
2017,05,28,09,36,19.30
2017,05,28,09,37,19.30
2017,05,28,09,38,19.30
2017,05,28,09,39,19.30
2017,05,28,09,40,19.30
2017,05,28,09,41,19.30
2017,05,28,09,42,19.30
2017,05,28,09,43,19.40
2017,05,28,09,44,19.50
2017,05,28,09,45,19.50
2017,05,28,09,46,19.60
2017,05,28,09,47,19.60
2017,05,28,09,48,19.60
2017,05,28,09,49,19.70
2017,05,28,09,50,19.70
2017,05,28,09,51,19.70
2017,05,28,09,52,19.70
2017,05,28,09,53,19.70
2017,05,28,09,54,19.80
2017,05,28,09,55,19.80
2017,05,28,09,56,19.80
2017,05,28,09,57,19.80
2017,05,28,09,58,19.80
2017,05,28,09,59,19.80
2017,05,28,10,00,19.80
2017,05,28,10,01,19.80
2017,05,28,10,02,19.70
2017,05,28,10,03,19.70
2017,05,28,10,04,19.70
2017,05,28,10,05,19.70
2017,05,28,10,06,19.80
2017,05,28,10,07,19.70
2017,05,28,10,08,19.60
2017,05,28,10,09,19.60
2017,05,28,10,10,19.60
2017,05,28,10,11,19.60
2017,05,28,10,12,19.60
2017,05,28,10,13,19.70
2017,05,28,10,14,19.80
2017,05,28,10,15,20.00
2017,05,28,10,16,20.00
2017,05,28,10,17,20.10
2017,05,28,10,18,20.10
2017,05,28,10,19,20.20
2017,05,28,10,20,20.20
2017,05,28,10,21,20.20
2017,05,28,10,22,20.20
2017,05,28,10,23,20.30
2017,05,28,10,24,20.30
2017,05,28,10,25,20.40
2017,05,28,10,26,20.40
2017,05,28,10,27,20.50
2017,05,28,10,28,20.60
2017,05,28,10,29,20.70
2017,05,28,10,30,20.70
2017,05,28,10,31,20.70
2017,05,28,10,32,20.70
2017,05,28,10,33,20.70
2017,05,28,10,34,20.80
2017,05,28,10,35,20.80
2017,05,28,10,36,20.80
2017,05,28,10,37,20.80
2017,05,28,10,38,20.70
2017,05,28,10,39,20.70
2017,05,28,10,40,20.70
2017,05,28,10,41,20.80
2017,05,28,10,42,20.70
2017,05,28,10,43,20.80
2017,05,28,10,44,20.80
2017,05,28,10,45,20.90
2017,05,28,10,46,21.00
2017,05,28,10,47,21.00
2017,05,28,10,48,21.10
2017,05,28,10,49,21.10
2017,05,28,10,50,21.10
2017,05,28,10,51,21.10
2017,05,28,10,52,21.10
2017,05,28,10,53,21.00
2017,05,28,10,54,21.00
2017,05,28,10,55,20.90
2017,05,28,10,56,20.90
2017,05,28,10,57,21.00
2017,05,28,10,58,21.10
2017,05,28,10,59,21.20
2017,05,28,11,00,21.30
2017,05,28,11,01,21.40
2017,05,28,11,02,21.40
2017,05,28,11,03,21.50
2017,05,28,11,04,21.60
2017,05,28,11,05,21.70
2017,05,28,11,06,21.80
2017,05,28,11,07,21.80
2017,05,28,11,08,21.80
2017,05,28,11,09,21.80
2017,05,28,11,10,21.80
2017,05,28,11,11,21.80
2017,05,28,11,12,21.80
2017,05,28,11,13,21.70
2017,05,28,11,14,21.60
2017,05,28,11,15,21.50
2017,05,28,11,16,21.40
2017,05,28,11,17,21.40
2017,05,28,11,18,21.40
2017,05,28,11,19,21.40
2017,05,28,11,20,21.40
2017,05,28,11,21,21.40
2017,05,28,11,22,21.30
2017,05,28,11,23,21.30
2017,05,28,11,24,21.30
2017,05,28,11,25,21.30
2017,05,28,11,26,21.30
2017,05,28,11,27,21.40
2017,05,28,11,28,21.30
2017,05,28,11,29,21.30
2017,05,28,11,30,21.30
2017,05,28,11,31,21.20
2017,05,28,11,32,21.10
2017,05,28,11,33,21.00
2017,05,28,11,34,21.00
2017,05,28,11,35,21.00
2017,05,28,11,36,21.10
2017,05,28,11,37,21.10
2017,05,28,11,38,21.20
2017,05,28,11,39,21.30
2017,05,28,11,40,21.30
2017,05,28,11,41,21.30
2017,05,28,11,42,21.30
2017,05,28,11,43,21.30
2017,05,28,11,44,21.30
2017,05,28,11,45,21.40
2017,05,28,11,46,21.40
2017,05,28,11,47,21.50
2017,05,28,11,48,21.50
2017,05,28,11,49,21.60
2017,05,28,11,50,21.70
2017,05,28,11,51,21.80
2017,05,28,11,52,21.80
2017,05,28,11,53,21.80
2017,05,28,11,54,21.90
2017,05,28,11,55,22.00
2017,05,28,11,56,22.10
2017,05,28,11,57,22.20
2017,05,28,11,58,22.20
2017,05,28,11,59,22.30
2017,05,28,12,00,22.40
2017,05,28,12,01,22.40
2017,05,28,12,02,22.40
2017,05,28,12,03,22.50
2017,05,28,12,04,22.60
2017,05,28,12,05,22.60
2017,05,28,12,06,22.60
2017,05,28,12,07,22.60
2017,05,28,12,08,22.60
2017,05,28,12,09,22.70
2017,05,28,12,10,22.70
2017,05,28,12,11,22.80
2017,05,28,12,12,22.80
2017,05,28,12,13,22.80
2017,05,28,12,14,22.80
2017,05,28,12,15,22.80
2017,05,28,12,16,22.80
2017,05,28,12,17,22.90
2017,05,28,12,18,22.90
2017,05,28,12,19,23.00
2017,05,28,12,20,23.10
2017,05,28,12,21,23.20
2017,05,28,12,22,23.20
2017,05,28,12,23,23.20
2017,05,28,12,24,23.10
2017,05,28,12,25,23.00
2017,05,28,12,26,23.10
2017,05,28,12,27,23.00
2017,05,28,12,28,22.90
2017,05,28,12,29,22.70
2017,05,28,12,30,22.60
2017,05,28,12,31,22.60
2017,05,28,12,32,22.60
2017,05,28,12,33,22.60
2017,05,28,12,34,22.70
2017,05,28,12,35,22.80
2017,05,28,12,36,22.80
2017,05,28,12,37,22.80
2017,05,28,12,38,22.70
2017,05,28,12,39,22.60
2017,05,28,12,40,22.40
2017,05,28,12,41,22.30
2017,05,28,12,42,22.30
2017,05,28,12,43,22.30
2017,05,28,12,44,22.20
2017,05,28,12,45,22.20
2017,05,28,12,46,22.30
2017,05,28,12,47,22.30
2017,05,28,12,48,22.40
2017,05,28,12,49,22.60
2017,05,28,12,50,22.70
2017,05,28,12,51,22.80
2017,05,28,12,52,22.80
2017,05,28,12,53,22.90
2017,05,28,12,54,22.90
2017,05,28,12,55,23.00
2017,05,28,12,56,23.10
2017,05,28,12,57,23.10
2017,05,28,12,58,23.10
2017,05,28,12,59,23.10
2017,05,28,13,00,23.10
2017,05,28,13,01,23.10
2017,05,28,13,02,23.00
2017,05,28,13,03,23.00
2017,05,28,13,04,22.90
2017,05,28,13,05,22.80
2017,05,28,13,06,22.70
2017,05,28,13,07,22.70
2017,05,28,13,08,22.70
2017,05,28,13,09,22.80
2017,05,28,13,10,22.90
2017,05,28,13,11,22.90
2017,05,28,13,12,22.90
2017,05,28,13,13,22.90
2017,05,28,13,14,22.80
2017,05,28,13,15,22.80
2017,05,28,13,16,22.70
2017,05,28,13,17,22.70
2017,05,28,13,18,22.70
2017,05,28,13,19,22.70
2017,05,28,13,20,22.70
2017,05,28,13,21,22.70
2017,05,28,13,22,22.60
2017,05,28,13,23,22.50
2017,05,28,13,24,22.40
2017,05,28,13,25,22.30
2017,05,28,13,26,22.30
2017,05,28,13,27,22.30
2017,05,28,13,28,22.40
2017,05,28,13,29,22.40
2017,05,28,13,30,22.40
2017,05,28,13,31,22.50
2017,05,28,13,32,22.50
2017,05,28,13,33,22.60
2017,05,28,13,34,22.70
2017,05,28,13,35,22.70
2017,05,28,13,36,22.80
2017,05,28,13,37,22.90
2017,05,28,13,38,22.90
2017,05,28,13,39,22.90
2017,05,28,13,40,22.90
2017,05,28,13,41,23.00
2017,05,28,13,42,23.00
2017,05,28,13,43,22.90
2017,05,28,13,44,22.90
2017,05,28,13,45,22.80
2017,05,28,13,46,22.50
2017,05,28,13,47,22.40
2017,05,28,13,48,22.30
2017,05,28,13,49,22.30
2017,05,28,13,50,22.30
2017,05,28,13,51,22.30
2017,05,28,13,52,22.30
2017,05,28,13,53,22.40
2017,05,28,13,54,22.50
2017,05,28,13,55,22.60
2017,05,28,13,56,22.70
2017,05,28,13,57,22.80
2017,05,28,13,58,22.80
2017,05,28,13,59,22.90
2017,05,28,14,00,22.90
2017,05,28,14,01,22.80
2017,05,28,14,02,22.80
2017,05,28,14,03,22.80
2017,05,28,14,04,22.80
2017,05,28,14,05,22.80
2017,05,28,14,06,22.90
2017,05,28,14,07,23.00
2017,05,28,14,08,23.10
2017,05,28,14,09,23.10
2017,05,28,14,10,23.20
2017,05,28,14,11,23.30
2017,05,28,14,12,23.40
2017,05,28,14,13,23.40
2017,05,28,14,14,23.40
2017,05,28,14,15,23.50
2017,05,28,14,16,23.50
2017,05,28,14,17,23.70
2017,05,28,14,18,23.80
2017,05,28,14,19,23.90
2017,05,28,14,20,24.00
2017,05,28,14,21,24.10
2017,05,28,14,22,24.20
2017,05,28,14,23,24.10
2017,05,28,14,24,24.10
2017,05,28,14,25,23.90
2017,05,28,14,26,23.80
2017,05,28,14,27,23.80
2017,05,28,14,28,23.80
2017,05,28,14,29,23.90
2017,05,28,14,30,23.90
2017,05,28,14,31,24.00
2017,05,28,14,32,24.10
2017,05,28,14,33,24.10
2017,05,28,14,34,24.00
2017,05,28,14,35,23.80
2017,05,28,14,36,23.70
2017,05,28,14,37,23.60
2017,05,28,14,38,23.50
2017,05,28,14,39,23.40
2017,05,28,14,40,23.40
2017,05,28,14,41,23.40
2017,05,28,14,42,23.40
2017,05,28,14,43,23.30
2017,05,28,14,44,23.30
2017,05,28,14,45,23.40
2017,05,28,14,46,23.50
2017,05,28,14,47,23.50
2017,05,28,14,48,23.60
2017,05,28,14,49,23.70
2017,05,28,14,50,23.80
2017,05,28,14,51,23.80
2017,05,28,14,52,23.90
2017,05,28,14,53,23.90
2017,05,28,14,54,23.90
2017,05,28,14,55,24.00
2017,05,28,14,56,23.90
2017,05,28,14,57,24.00
2017,05,28,14,58,24.00
2017,05,28,14,59,24.10
2017,05,28,15,00,24.20
2017,05,28,15,01,24.30
2017,05,28,15,02,24.40
2017,05,28,15,03,24.40
2017,05,28,15,04,24.30
2017,05,28,15,05,24.40
2017,05,28,15,06,24.50
2017,05,28,15,07,24.60
2017,05,28,15,08,24.60
2017,05,28,15,09,24.60
2017,05,28,15,10,24.50
2017,05,28,15,11,24.40
2017,05,28,15,12,24.40
2017,05,28,15,13,24.40
2017,05,28,15,14,24.50
2017,05,28,15,15,24.50
2017,05,28,15,16,24.50
2017,05,28,15,17,24.50
2017,05,28,15,18,24.60
2017,05,28,15,19,24.60
2017,05,28,15,20,24.60
2017,05,28,15,21,24.60
2017,05,28,15,22,24.70
2017,05,28,15,23,24.70
2017,05,28,15,24,24.80
2017,05,28,15,25,24.80
2017,05,28,15,26,24.80
2017,05,28,15,27,24.80
2017,05,28,15,28,24.80
2017,05,28,15,29,24.80
2017,05,28,15,30,24.90
2017,05,28,15,31,24.90
2017,05,28,15,32,24.90
2017,05,28,15,33,25.00
2017,05,28,15,34,25.10
2017,05,28,15,35,25.20
2017,05,28,15,36,25.10
2017,05,28,15,37,25.10
2017,05,28,15,38,25.10
2017,05,28,15,39,25.20
2017,05,28,15,40,25.20
2017,05,28,15,41,25.30
2017,05,28,15,42,25.30
2017,05,28,15,43,25.30
2017,05,28,15,44,25.30
2017,05,28,15,45,25.30
2017,05,28,15,46,25.30
2017,05,28,15,47,25.40
2017,05,28,15,48,25.40
2017,05,28,15,49,25.40
2017,05,28,15,50,25.40
2017,05,28,15,51,25.50
2017,05,28,15,52,25.50
2017,05,28,15,53,25.60
2017,05,28,15,54,25.70
2017,05,28,15,55,25.60
2017,05,28,15,56,25.60
2017,05,28,15,57,25.70
2017,05,28,15,58,25.70
2017,05,28,15,59,25.70
2017,05,28,16,00,25.80
2017,05,28,16,01,25.80
2017,05,28,16,02,25.90
2017,05,28,16,03,25.90
2017,05,28,16,04,25.90
2017,05,28,16,05,25.90
2017,05,28,16,06,26.00
2017,05,28,16,07,26.00
2017,05,28,16,08,26.00
2017,05,28,16,09,26.00
2017,05,28,16,10,26.00
2017,05,28,16,11,26.10
2017,05,28,16,12,26.20
2017,05,28,16,13,26.30
2017,05,28,16,14,26.50
2017,05,28,16,15,26.60
2017,05,28,16,16,26.70
2017,05,28,16,17,26.80
2017,05,28,16,18,26.80
2017,05,28,16,19,26.90
2017,05,28,16,20,27.00
2017,05,28,16,21,27.00
2017,05,28,16,22,27.10
2017,05,28,16,23,27.10
2017,05,28,16,24,27.10
2017,05,28,16,25,27.00
2017,05,28,16,26,27.00
2017,05,28,16,27,27.00
2017,05,28,16,28,27.10
2017,05,28,16,29,27.20
2017,05,28,16,30,27.20
2017,05,28,16,31,27.30
2017,05,28,16,32,27.30
2017,05,28,16,33,27.40
2017,05,28,16,34,27.40
2017,05,28,16,35,27.50
2017,05,28,16,36,27.50
2017,05,28,16,37,27.60
2017,05,28,16,38,27.50
2017,05,28,16,39,27.50
2017,05,28,16,40,27.40
2017,05,28,16,41,27.40
2017,05,28,16,42,27.40
2017,05,28,16,43,27.40
2017,05,28,16,44,27.40
2017,05,28,16,45,27.40
2017,05,28,16,46,27.40
2017,05,28,16,47,27.50
2017,05,28,16,48,27.50
2017,05,28,16,49,27.40
2017,05,28,16,50,27.40
2017,05,28,16,51,27.30
2017,05,28,16,52,27.30
2017,05,28,16,53,27.30
2017,05,28,16,54,27.40
2017,05,28,16,55,27.30
2017,05,28,16,56,27.30
2017,05,28,16,57,27.20
2017,05,28,16,58,27.10
2017,05,28,16,59,27.10
2017,05,28,17,00,27.10
2017,05,28,17,01,27.10
2017,05,28,17,02,27.00
2017,05,28,17,03,27.00
2017,05,28,17,04,27.10
2017,05,28,17,05,27.10
2017,05,28,17,06,27.10
2017,05,28,17,07,27.00
2017,05,28,17,08,26.90
2017,05,28,17,09,26.90
2017,05,28,17,10,26.80
2017,05,28,17,11,26.80
2017,05,28,17,12,26.70
2017,05,28,17,13,26.70
2017,05,28,17,14,26.60
2017,05,28,17,15,26.60
2017,05,28,17,16,26.70
2017,05,28,17,17,26.70
2017,05,28,17,18,26.70
2017,05,28,17,19,26.70